User: anonymous   Login
Location: Unspecified
(0.0000°N, 0.0000°E)
Time: 07:04:08
(UTC+00:00)
Language:

AOBA-VELOX 3 - Orbit

View from above orbital plane
View from above orbital plane
View from above satellite
View from above satellite

Ground track
Ground track

The orbit data is extracted from the following two-line orbital elements,

1 41935U 98067KX  18048.50019831 +.00031851 +00000-0 +25122-3 0  9993
2 41935 051.6349 232.4399 0003473 120.9992 239.1347 15.71113528062059
Epoch (UTC): 17 February 2018 12:00:17
Eccentricity: 0.0003473
inclination: 51.6349°
perigee height: 353 km
apogee height: 358 km
right ascension of ascending node: 232.4399°
argument of perigee: 120.9992°
revolutions per day: 15.71113528
mean anomaly at epoch: 239.1347°
orbit number at epoch: 6205

The dashed part of the orbit path shows where the satellite is in the earth's shadow,  

DLR